Change the Weather History Date:

Sunday, February 17, 2013

  Actual Average Record
Temperature  
Mean Temperature 32 °F -  
Max Temperature 37 °F 51 °F 81 °F (1976)
Min Temperature 26 °F 30 °F 8 °F (1958)
Degree Days  
Heating Degree Days 34    
Moisture  
Dew Point 14 °F    
Average Humidity 51    
Maximum Humidity 87    
Minimum Humidity 30    
Precipitation  
Precipitation 0.00 in - - ()
Sea Level Pressure  
Sea Level Pressure 30.01 in    
Wind  
Wind Speed 12 mph (NW)    
Max Wind Speed 23 mph    
Max Gust Speed 31 mph    
Visibility 10 miles    
Events      
Averages and records for this station are not official NWS values.
T = Trace of Precipitation, MM = Missing Value Source: NWS Daily Summary

Daily Weather History Graph

Daily Weather History Graph

Search for Another Location

Airport or City:

Trip Planner

Search our weather history database for the weather conditions in past years. The results will help you decide how hot, cold, wet, or windy it might be!

Date:

Astronomy

Feb. 17, 2013 Rise Set
Actual Time 6:53 AM EST 5:49 PM EST
Civil Twilight 6:26 AM EST 6:15 PM EST
Nautical Twilight 5:56 AM EST 6:46 PM EST
Astronomical Twilight 5:25 AM EST 7:16 PM EST
Moon 10:55 AM EST (2/17) 12:32 AM EST (2/17)
Length of Visible Light 11h 49m
Length of Day
10h 55m
Waxing Crescent, 49% of the Moon is Illuminated
Feb 17
Waxing Crescent
Feb 17
First Quarter
Feb 25
Full
Mar 4
Last Quarter
Mar 11
New

Hourly Weather History & Observations

Time (EST) Temp. Windchill Dew Point Humidity Pressure Visibility Wind Dir Wind Speed Gust Speed Precip Events Conditions
12:15 AM 32.0 °F 24.2 °F 28.4 °F 87% 29.82 in 10.0 mi NNW 9.2 mph - N/A   Clear
12:35 AM 30.2 °F 22.6 °F 26.6 °F 86% 29.83 in 10.0 mi NW 8.1 mph - N/A   Clear
12:55 AM 30.2 °F 22.6 °F 26.6 °F 86% 29.84 in 10.0 mi NW 8.1 mph - N/A   Clear
1:15 AM 30.2 °F 21.9 °F 26.6 °F 86% 29.84 in 10.0 mi NW 9.2 mph - N/A   Clear
1:35 AM 30.2 °F 21.9 °F 24.8 °F 80% 29.84 in 10.0 mi NW 9.2 mph - N/A   Clear
1:55 AM 30.2 °F 20.8 °F 23.0 °F 75% 29.85 in 10.0 mi NW 11.5 mph 17.3 mph N/A   Clear
2:15 AM 30.2 °F 20.8 °F 21.2 °F 69% 29.85 in 10.0 mi NW 11.5 mph - N/A   Clear
2:35 AM 30.2 °F 21.3 °F 21.2 °F 69% 29.85 in 10.0 mi NW 10.4 mph 16.1 mph N/A   Clear
2:55 AM 30.2 °F 21.3 °F 21.2 °F 69% 29.86 in 10.0 mi NW 10.4 mph 17.3 mph N/A   Clear
3:15 AM 28.4 °F 18.0 °F 19.4 °F 69% 29.86 in 10.0 mi NW 12.7 mph 18.4 mph N/A   Clear
3:35 AM 28.4 °F 18.0 °F 19.4 °F 69% 29.86 in 10.0 mi NW 12.7 mph 18.4 mph N/A   Clear
3:55 AM 28.4 °F 19.7 °F 19.4 °F 69% 29.87 in 10.0 mi NW 9.2 mph 16.1 mph N/A   Clear
4:15 AM 28.4 °F 18.5 °F 19.4 °F 69% 29.87 in 10.0 mi NNW 11.5 mph 19.6 mph N/A   Clear
4:35 AM 28.4 °F 19.1 °F 19.4 °F 69% 29.88 in 10.0 mi NNW 10.4 mph 16.1 mph N/A   Clear
4:55 AM 28.4 °F 19.1 °F 17.6 °F 64% 29.89 in 10.0 mi NW 10.4 mph 18.4 mph N/A   Clear
5:15 AM 28.4 °F 19.7 °F 17.6 °F 64% 29.89 in 10.0 mi NW 9.2 mph - N/A   Clear
5:35 AM 28.4 °F 19.1 °F 17.6 °F 64% 29.90 in 10.0 mi NW 10.4 mph - N/A   Clear
5:55 AM 28.4 °F 19.1 °F 15.8 °F 59% 29.91 in 10.0 mi NW 10.4 mph - N/A   Clear
6:15 AM 28.4 °F 20.4 °F 17.6 °F 64% 29.91 in 10.0 mi WNW 8.1 mph - N/A   Clear
6:35 AM 28.4 °F 20.4 °F 17.6 °F 64% 29.92 in 10.0 mi WNW 8.1 mph - N/A   Clear
6:55 AM 26.6 °F 17.5 °F 17.6 °F 69% 29.93 in 10.0 mi WNW 9.2 mph - N/A   Clear
7:15 AM 28.4 °F 18.5 °F 17.6 °F 64% 29.94 in 10.0 mi WNW 11.5 mph - N/A   Clear
7:35 AM 28.4 °F 20.4 °F 17.6 °F 64% 29.95 in 10.0 mi NW 8.1 mph - N/A   Clear
7:55 AM 28.4 °F 19.1 °F 19.4 °F 69% 29.95 in 10.0 mi WNW 10.4 mph 16.1 mph N/A   Clear
8:15 AM 30.2 °F 18.9 °F 19.4 °F 64% 29.96 in 10.0 mi WNW 16.1 mph 21.9 mph N/A   Clear
8:35 AM 30.2 °F 18.5 °F 19.4 °F 64% 29.97 in 10.0 mi NW 17.3 mph - N/A   Mostly Cloudy
8:55 AM 30.2 °F 21.3 °F 19.4 °F 64% 29.97 in 10.0 mi WNW 10.4 mph 25.3 mph N/A   Overcast
9:15 AM 30.2 °F 19.8 °F 19.4 °F 64% 29.97 in 10.0 mi WNW 13.8 mph 23.0 mph N/A   Mostly Cloudy
9:35 AM 32.0 °F 19.5 °F 17.6 °F 55% 29.98 in 10.0 mi WNW 21.9 mph 28.8 mph N/A   Scattered Clouds
9:55 AM 33.8 °F 23.2 °F 17.6 °F 52% 29.99 in 10.0 mi NW 17.3 mph 23.0 mph N/A   Overcast
10:15 AM 33.8 °F 25.8 °F 17.6 °F 52% 29.99 in 10.0 mi WNW 10.4 mph 19.6 mph N/A   Overcast
10:35 AM 33.8 °F 22.8 °F 17.6 °F 52% 30.00 in 10.0 mi WNW 18.4 mph 24.2 mph N/A   Mostly Cloudy
10:55 AM 33.8 °F 24.8 °F 15.8 °F 48% 30.00 in 10.0 mi NW 12.7 mph 24.2 mph N/A   Mostly Cloudy
11:15 AM 33.8 °F 23.9 °F 15.8 °F 48% 30.00 in 10.0 mi NW 15.0 mph 24.2 mph N/A   Mostly Cloudy
11:35 AM 35.6 °F 25.9 °F 15.8 °F 44% 30.01 in 10.0 mi WNW 16.1 mph 24.2 mph N/A   Mostly Cloudy
11:55 AM 33.8 °F 24.8 °F 14.0 °F 44% 30.01 in 10.0 mi NW 12.7 mph 23.0 mph N/A   Mostly Cloudy
12:15 PM 33.8 °F 23.5 °F 14.0 °F 44% 30.01 in 10.0 mi NW 16.1 mph 23.0 mph N/A   Overcast
12:35 PM 33.8 °F 23.2 °F 12.2 °F 41% 30.01 in 10.0 mi WNW 17.3 mph 24.2 mph N/A   Mostly Cloudy
12:55 PM 35.6 °F 26.6 °F 12.2 °F 38% 30.01 in 10.0 mi NW 13.8 mph 20.7 mph N/A   Mostly Cloudy
1:15 PM 33.8 °F 24.3 °F 10.4 °F 38% 30.00 in 10.0 mi WNW 13.8 mph 29.9 mph N/A   Scattered Clouds
1:55 PM 33.8 °F 22.5 °F 10.4 °F 38% 30.01 in 10.0 mi NW 19.6 mph 27.6 mph N/A   Mostly Cloudy
2:15 PM 33.8 °F 23.9 °F 8.6 °F 35% 30.01 in 10.0 mi WNW 15.0 mph 24.2 mph N/A   Scattered Clouds
2:35 PM 35.6 °F 24.8 °F 8.6 °F 33% 30.01 in 10.0 mi WNW 19.6 mph 28.8 mph N/A   Mostly Cloudy
2:55 PM 37.4 °F 26.6 °F 8.6 °F 30% 30.01 in 10.0 mi West 21.9 mph 29.9 mph N/A   Mostly Cloudy
3:15 PM 37.4 °F 27.8 °F 8.6 °F 30% 30.02 in 10.0 mi WNW 17.3 mph 25.3 mph N/A   Mostly Cloudy
3:35 PM 33.8 °F 23.5 °F 6.8 °F 32% 30.03 in 10.0 mi NW 16.1 mph 25.3 mph N/A   Mostly Cloudy
3:55 PM 35.6 °F 24.0 °F 6.8 °F 30% 30.04 in 10.0 mi WNW 23.0 mph 31.1 mph N/A   Scattered Clouds
4:15 PM 35.6 °F 25.2 °F 6.8 °F 30% 30.05 in 10.0 mi NW 18.4 mph 25.3 mph N/A   Scattered Clouds
4:35 PM 35.6 °F 25.2 °F 6.8 °F 30% 30.06 in 10.0 mi WNW 18.4 mph 27.6 mph N/A   Clear
4:55 PM 33.8 °F 25.8 °F 6.8 °F 32% 30.07 in 10.0 mi NW 10.4 mph 24.2 mph N/A   Scattered Clouds
5:15 PM 33.8 °F 22.8 °F 6.8 °F 32% 30.07 in 10.0 mi West 18.4 mph 25.3 mph N/A   Scattered Clouds
5:35 PM 32.0 °F 21.6 °F 6.8 °F 35% 30.09 in 10.0 mi WNW 15.0 mph 20.7 mph N/A   Scattered Clouds
5:55 PM 32.0 °F 23.0 °F 5.0 °F 32% 30.10 in 10.0 mi WNW 11.5 mph 24.2 mph N/A   Clear
6:15 PM 32.0 °F 21.2 °F 6.8 °F 35% 30.12 in 10.0 mi WNW 16.1 mph 25.3 mph N/A   Clear
6:35 PM 30.2 °F 21.9 °F 5.0 °F 34% 30.13 in 10.0 mi WNW 9.2 mph 18.4 mph N/A   Clear
6:55 PM 30.2 °F 20.2 °F 5.0 °F 34% 30.14 in 10.0 mi NW 12.7 mph 18.4 mph N/A   Clear
7:15 PM 30.2 °F 20.8 °F 5.0 °F 34% 30.15 in 10.0 mi NW 11.5 mph 17.3 mph N/A   Clear
7:35 PM 30.2 °F 21.3 °F 5.0 °F 34% 30.16 in 10.0 mi NW 10.4 mph - N/A   Clear
7:55 PM 30.2 °F 21.9 °F 5.0 °F 34% 30.17 in 10.0 mi NW 9.2 mph - N/A   Clear
8:15 PM 28.4 °F 19.7 °F 6.8 °F 40% 30.18 in 10.0 mi NW 9.2 mph - N/A   Clear
8:35 PM 28.4 °F 20.4 °F 5.0 °F 37% 30.18 in 10.0 mi NW 8.1 mph - N/A   Clear
8:55 PM 28.4 °F 19.7 °F 6.8 °F 40% 30.19 in 10.0 mi NW 9.2 mph - N/A   Clear
9:15 PM 28.4 °F 19.1 °F 6.8 °F 40% 30.20 in 10.0 mi NW 10.4 mph - N/A   Clear
9:35 PM 28.4 °F 19.7 °F 6.8 °F 40% 30.21 in 10.0 mi WNW 9.2 mph - N/A   Clear
9:55 PM 28.4 °F 19.1 °F 6.8 °F 40% 30.22 in 10.0 mi NW 10.4 mph - N/A   Clear
10:15 PM 28.4 °F 17.5 °F 6.8 °F 40% 30.22 in 10.0 mi NW 13.8 mph 17.3 mph N/A   Clear
10:35 PM 28.4 °F 20.4 °F 6.8 °F 40% 30.23 in 10.0 mi NW 8.1 mph - N/A   Clear
10:55 PM 28.4 °F 19.1 °F 6.8 °F 40% 30.24 in 10.0 mi NW 10.4 mph 19.6 mph N/A   Clear
11:15 PM 26.6 °F 19.1 °F 6.8 °F 43% 30.24 in 10.0 mi NW 6.9 mph 18.4 mph N/A   Clear
11:35 PM 26.6 °F 16.8 °F 6.8 °F 43% 30.24 in 10.0 mi NW 10.4 mph 21.9 mph N/A   Clear
11:55 PM 26.6 °F 15.7 °F 6.8 °F 43% 30.25 in 10.0 mi NW 12.7 mph 18.4 mph N/A   Clear